#timestamp,LO_Frequency,Hit,StdDev 
1560909615.1,286047002.0,N
1560909616.0,286047002.0,N
1560909635.8,286047004.3,Y
1560909655.7,286047000.2,P
1560909675.5,286047000.3,N
1560909695.3,286047002.6,P
1560909715.2,286047001.9,N
1560909735.0,286047000.0,N
1560909735.9,286047000.0,N
1560909755.7,286047002.4,N
1560909775.6,286047002.1,N
1560909795.4,286047004.2,Y
1560909815.3,286047004.3,P
1560909835.1,286047002.5,N
1560909836.0,286047002.5,N
1560909855.8,286047002.8,N
1560909875.7,286047002.4,N
1560909895.5,286047002.6,N
1560909915.3,286047000.1,N
1560909935.2,286047002.8,N
1560909955.0,286047000.0,N
1560909955.9,286047000.0,N
1560909975.8,286047002.2,N
1560909995.6,286047002.4,N
1560910015.4,286047000.8,N
1560910035.3,286047001.1,N
1560910055.1,286046998.6,N
1560910075.9,286047000.1,N
1560910095.7,286047000.8,N
1560910115.5,286047000.1,N
1560910135.4,286047000.4,N
1560910155.2,286047000.3,N
1560910175.0,286047000.6,N
1560910175.9,286047000.6,N
1560910195.8,286046998.7,N
1560910215.6,286046996.5,N
1560910235.5,286046999.3,N
1560910255.3,286046998.8,N
1560910275.1,286046998.6,N
1560910295.9,286046998.4,N
1560910315.7,286046999.2,N
1560910335.6,286047000.2,N
1560910355.4,286046998.2,N
1560910375.2,286047000.5,N
1560910395.1,286047000.8,N
1560910396.0,286047000.8,N
1560910415.8,286047001.0,N
1560910435.6,286046998.6,N
1560910455.5,286047000.8,N
1560910475.3,286046999.2,N
1560910495.2,286047001.2,N
1560910515.9,286047000.5,N
1560910535.7,286047000.5,N
1560910555.6,286046998.2,N
1560910575.4,286046998.1,N
1560910595.2,286047001.1,N
1560910615.1,286047000.7,N
1560910616.0,286047000.7,N
1560910635.8,286046998.3,N
1560910655.7,286047000.7,N
1560910675.5,286047000.0,N
1560910695.3,286047002.3,N
1560910715.2,286047000.5,N
1560910735.0,286047000.0,N
1560910735.9,286047000.0,N
1560910755.7,286047002.4,N
1560910775.6,286047002.4,N
1560910795.4,286047000.3,N
1560910815.3,286047002.6,N
1560910835.1,286047002.6,N
1560910836.0,286047002.6,N
1560910855.8,286047002.2,N
1560910875.7,286046999.8,N
1560910895.5,286046998.1,N
1560910915.3,286046998.1,N
1560910935.2,286046998.4,N
1560910955.0,286047000.7,N
1560910955.9,286047000.7,N
1560910975.8,286047000.9,N
1560910995.6,286046998.1,N
1560911015.4,286047000.9,N
1560911035.3,286047000.5,N
1560911055.1,286047002.7,N
1560911075.8,286047001.5,N
1560911095.7,286047002.2,N
1560911115.5,286047000.1,N
1560911135.4,286047000.7,N
1560911155.2,286047000.7,N
1560911175.0,286047002.4,N
1560911175.9,286047002.4,N
1560911195.8,286047000.7,N
1560911215.6,286047000.4,N
1560911235.4,286046998.3,N
1560911255.3,286047000.6,N
1560911275.1,286047000.9,N
1560911295.9,286047000.6,N
1560911315.7,286046998.2,N
1560911335.5,286046996.6,N
1560911355.4,286046998.6,N
1560911375.2,286046998.5,N
1560911395.1,286047000.6,N
1560911396.0,286047000.6,N
1560911415.8,286047000.9,N
1560911435.6,286046998.2,N
1560911455.5,286047001.1,N
1560911475.3,286047001.2,N
1560911495.1,286046998.6,N
1560911515.9,286047001.1,N
1560911535.7,286047000.8,N
1560911555.6,286046999.7,N
1560911575.4,286046998.6,N
1560911595.2,286047000.5,N
1560911615.1,286047002.6,N
1560911616.0,286047002.6,N
1560911635.8,286047002.5,N
1560911655.6,286046999.7,N
1560911675.5,286047004.4,N
1560911695.3,286047004.1,N
1560911715.2,286047001.5,N
1560911735.9,286047002.8,N
1560911755.7,286047001.7,N
1560911775.6,286047003.9,N
1560911795.4,286047004.4,N
1560911815.2,286047004.1,N
1560911835.1,286047003.6,N
1560911836.0,286047003.6,N
1560911855.8,286047004.2,N
1560911875.7,286047003.6,N
1560911895.5,286047001.3,N
1560911915.3,286047000.0,N
1560911935.2,286047000.3,N
1560911955.0,286046998.3,N
1560911955.9,286046998.3,N
1560911975.8,286046998.1,N
1560911995.6,286046998.7,N
1560912015.4,286046998.2,N
1560912035.3,286046998.7,N
1560912055.1,286046998.5,N
1560912075.8,286046998.2,N
1560912095.7,286047000.7,N
1560912115.5,286046998.8,N
1560912135.4,286046996.5,N
1560912155.2,286046997.6,N
1560912175.0,286046995.3,N
1560912175.9,286046995.3,N
1560912195.8,286046998.0,N
1560912215.6,286046999.0,N
1560912235.4,286046996.7,N
1560912255.3,286046996.7,N
1560912275.1,286046996.5,N
1560912295.9,286046999.4,N
1560912315.7,286046998.5,N
1560912335.5,286046996.6,N
1560912355.4,286046997.1,N
1560912375.2,286046999.5,N
1560912395.0,286046996.9,N
1560912395.9,286046996.9,N
1560912415.8,286046996.8,N
1560912435.6,286046997.5,N
1560912455.5,286046995.7,Y
1560912475.3,286046999.0,P
1560912495.1,286046996.5,P
1560912515.9,286046997.1,N
1560912535.7,286046998.9,N
1560912555.5,286047001.2,N
1560912575.4,286047000.6,N
1560912595.2,286047002.3,N
1560912615.1,286047002.0,N
1560912616.0,286047002.0,N
1560912635.8,286047002.7,N
1560912655.6,286047002.0,N
1560912675.5,286047002.2,N
1560912695.3,286047001.9,N
1560912715.1,286047001.3,N
1560912735.9,286047002.4,N
1560912755.7,286046999.8,N
1560912775.6,286047001.7,N
1560912795.4,286046999.9,N
1560912815.2,286047000.9,N
1560912835.1,286047000.2,N
1560912836.0,286047000.2,N
1560912855.8,286047002.1,N
1560912875.6,286047000.1,N
1560912895.5,286047000.2,N
1560912915.3,286047000.2,N
1560912935.2,286047000.1,N
1560912955.9,286047000.0,N
1560912975.7,286046998.6,N
1560912995.6,286046999.4,N
1560913015.4,286046998.2,N
1560913035.3,286047001.2,N
1560913055.1,286046999.7,N
1560913056.0,286046999.7,N
1560913075.8,286047002.8,N
1560913095.7,286047000.1,N
1560913115.5,286047002.4,N
1560913135.3,286047000.4,N
1560913155.2,286046999.2,N
1560913175.0,286046998.1,N
1560913175.9,286046998.1,N
1560913195.8,286046999.4,N
